TimeMDT,TemperatureF,Dew PointF,Humidity,Sea Level PressureIn,VisibilityMPH,Wind Direction,Wind SpeedMPH,Gust SpeedMPH,PrecipitationIn,Events,Conditions,WindDirDegrees,DateUTC
12:56 AM,27.0,9.0,47,29.93,-9999.0,South,9.2,-,N/A,,Unknown,170,2013-03-11 06:56:00
1:56 AM,27.0,10.9,51,29.90,-9999.0,SE,5.8,-,N/A,,Unknown,140,2013-03-11 07:56:00
2:56 AM,28.9,10.9,47,29.88,-9999.0,West,8.1,-,N/A,,Unknown,280,2013-03-11 08:56:00
3:56 AM,30.0,12.9,49,29.83,-9999.0,WSW,8.1,-,N/A,,Unknown,240,2013-03-11 09:56:00
4:56 AM,28.9,14.0,54,29.83,-9999.0,West,15.0,-,N/A,,Unknown,280,2013-03-11 10:56:00
5:56 AM,28.9,19.0,67,29.84,-9999.0,West,13.8,-,N/A,,Unknown,280,2013-03-11 11:56:00
6:56 AM,36.0,24.1,62,29.84,-9999.0,WNW,21.9,29.9,N/A,,Unknown,300,2013-03-11 12:56:00
7:56 AM,34.0,24.1,67,29.87,-9999.0,WNW,20.7,25.3,N/A,,Unknown,300,2013-03-11 13:56:00
8:56 AM,37.0,25.0,62,29.87,-9999.0,NW,33.4,40.3,N/A,,Unknown,320,2013-03-11 14:56:00
9:56 AM,37.0,23.0,57,29.89,-9999.0,NNW,31.1,42.6,N/A,,Unknown,330,2013-03-11 15:56:00
10:56 AM,39.0,18.0,43,29.93,-9999.0,NW,33.4,42.6,N/A,,Unknown,320,2013-03-11 16:56:00
11:56 AM,39.9,14.0,35,29.93,-9999.0,NNW,31.1,43.7,N/A,,Unknown,330,2013-03-11 17:56:00
12:56 PM,41.0,14.0,33,29.91,-9999.0,NNW,33.4,44.9,N/A,,Unknown,340,2013-03-11 18:56:00
1:56 PM,41.0,14.0,33,29.92,-9999.0,NW,38.0,44.9,N/A,,Unknown,320,2013-03-11 19:56:00
2:56 PM,39.9,14.0,35,29.93,-9999.0,NNW,33.4,44.9,N/A,,Unknown,330,2013-03-11 20:56:00
3:56 PM,39.9,12.9,33,29.94,-9999.0,NW,32.2,42.6,N/A,,Unknown,320,2013-03-11 21:56:00
4:56 PM,39.0,15.1,38,29.94,-9999.0,NW,35.7,44.9,N/A,,Unknown,320,2013-03-11 22:56:00
5:56 PM,37.0,15.1,41,29.97,-9999.0,NW,29.9,40.3,N/A,,Unknown,320,2013-03-11 23:56:00
6:56 PM,32.0,23.0,69,29.99,-9999.0,NW,27.6,42.6,N/A,,Unknown,320,2013-03-12 00:56:00
7:56 PM,32.0,15.1,50,30.02,-9999.0,NW,26.5,38.0,N/A,,Unknown,320,2013-03-12 01:56:00
8:56 PM,28.9,17.1,61,30.04,-9999.0,NW,32.2,46.0,N/A,,Unknown,320,2013-03-12 02:56:00
9:56 PM,27.0,15.1,61,30.07,-9999.0,NW,35.7,49.5,N/A,,Unknown,320,2013-03-12 03:56:00
10:56 PM,25.0,14.0,63,30.11,-9999.0,NW,34.5,47.2,N/A,,Unknown,310,2013-03-12 04:56:00
11:56 PM,24.1,16.0,71,30.14,-9999.0,NW,32.2,40.3,N/A,,Unknown,320,2013-03-12 05:56:00